This is the latest recevied weather packets stored in our database for station/object JG6YPS-13. If no packets are shown the sender has not sent any weather packets the latest 10 day(s).
| Time | Temp. | Humidity | Pressure | Rain* | Wind** | Luminosity | Snow |
|---|---|---|---|---|---|---|---|
| 1777959442 | 25.56° C | 35% | 1017.3 hPa | 0 mm | - | - | - |
| 1777958842 | 26.11° C | 34% | 1017.3 hPa | 0 mm | - | - | - |
| 1777958242 | 26.67° C | 34% | 1017.5 hPa | 0 mm | - | - | - |
| 1777957642 | 28.33° C | 31% | 1017.5 hPa | 0 mm | - | - | - |
| 1777957041 | 27.78° C | 31% | 1017.6 hPa | 0 mm | - | - | - |
| 1777956441 | 28.33° C | 32% | 1017.7 hPa | 0 mm | - | - | - |
| 1777955840 | 27.22° C | 33% | 1017.9 hPa | 0 mm | - | - | - |
| 1777955240 | 26.67° C | 33% | 1017.9 hPa | 0 mm | - | - | - |
| 1777954639 | 26.67° C | 32% | 1018 hPa | 0 mm | - | - | - |
| 1777954039 | 27.78° C | 35% | 1018.2 hPa | 0 mm | - | - | - |
| 1777953439 | 26.67° C | 34% | 1018.4 hPa | 0 mm | - | - | - |
| 1777952838 | 27.78° C | 35% | 1018.4 hPa | 0 mm | - | - | - |
| 1777952238 | 27.22° C | 31% | 1018.5 hPa | 0 mm | - | - | - |
| 1777951638 | 27.78° C | 40% | 1018.8 hPa | 0 mm | - | - | - |
| 1777951037 | 25.56° C | 32% | 1018.9 hPa | 0 mm | - | - | - |
| 1777950437 | 25.56° C | 35% | 1019.1 hPa | 0 mm | - | - | - |
| 1777949837 | 26.11° C | 37% | 1019.2 hPa | 0 mm | - | - | - |
| 1777949237 | 26.67° C | 34% | 1019.4 hPa | 0 mm | - | - | - |
| 1777948636 | 24.44° C | 34% | 1019.6 hPa | 0 mm | - | - | - |
| 1777948036 | 25° C | 36% | 1019.6 hPa | 0 mm | - | - | - |
| 1777947436 | 24.44° C | 34% | 1019.8 hPa | 0 mm | - | - | - |
| 1777946836 | 23.89° C | 36% | 1019.8 hPa | 0 mm | - | - | - |
| 1777946236 | 23.89° C | 37% | 1019.9 hPa | 0 mm | - | - | - |
| 1777945636 | 23.33° C | 44% | 1020 hPa | 0 mm | - | - | - |
| 1777945037 | 23.33° C | 41% | 1020.1 hPa | 0 mm | - | - | - |
* Rain latest hour (hover to see other rain measurements)
** Current wind speed in m/s (hover to see current wind gust speed)